Regional Weather Roundup
Issued by NWS

Home | Current Version | Previous Version | Text Only | Print | Product List | Glossary On
Versions: 1 2 3 4 5 6 7 8 9 10 11 12 13 14 15 16 17 18 19 20 21 22 23 24 25 26 27 28 29 30 31 32 33 34 35 36 37 38 39 40 41 42 43 44 45 46 47 48 49 50
000
ASUS45 KABQ 252210
RWRNM
WEATHER ROUNDUP FOR NEW MEXICO
NATIONAL WEATHER SERVICE ALBUQUERQUE NM
300 PM MST THU DEC 25 2014

NOTE: "FAIR" MEANS FEW OR NO CLOUDS BELOW 12,000 FEET AGL WITH NO
       SIGNIFICANT WEATHER OR OBSTRUCTIONS TO VISION.

      THIS PRODUCT IS RELEASED AS TWO VERSIONS.  ONE VERSION NEAR
      THE TOP OF THE HOUR CONTAINING PRELIMINARY DATA FROM ALBUQUERQUE
      AND OTHER STATIONS.  A FINAL VERSION WITH ADDITIONAL DATA IS
      ISSUED ABOUT 10 MINUTES AFTER THE HOUR.

NMZ501-503-504-510>518-252300-
NORTHWEST PLATEAU/NORTHCENTRAL MOUNTAINS

CITY           SKY/WX    TMP DP  RH WIND       PRES   REMARKS
FARMINGTON     PTSUNNY   41  20  43 W16G22    29.58S
LOS ALAMOS     CLOUDY    38  21  51 SW8       29.63S WCI  32
SANTA FE       MOSUNNY   43  18  36 W9        29.62S
TAOS           CLOUDY    34  18  51 W5        29.65S WCI  30
ANGEL FIRE     LGT SNOW  29  22  78 SW14      29.64R WCI  18

$$
NMZ402-403-502-505>509-252300-
WESTCENTRAL MOUNTAINS/SOUTHWEST MOUNTAINS

CITY           SKY/WX    TMP DP  RH WIND       PRES   REMARKS
GALLUP         HVY SNOW  31  29  92 W10       29.64R VSB 1/4 WCI  22
GRANTS         CLOUDY    43  19  37 SW15G28   29.63F
SILVER CITY    MOSUNNY   57  10  15 W23G33    29.69F

$$
NMZ407-409-411-412-252300-
SOUTHERN DESERTS

CITY           SKY/WX    TMP DP  RH WIND       PRES   REMARKS
LORDSBURG      FAIR      63  16  16 W18G33    29.66F
DEMING         SUNNY     63  16  16 W30G38    29.66F
LAS CRUCES     MOSUNNY   63  13  13 SW17      29.69F
HOLLOMAN AFB   MOSUNNY   62   9  12 S20       29.67F
ALAMOGORDO     MOSUNNY   61   9  12 S17G29    29.70S
T OR C         SUNNY     61  15  16 SW30G39   29.61F

$$
NMZ519>523-252300-
CENTRAL VALLEYS/CENTRAL HIGHLANDS

CITY           SKY/WX    TMP DP  RH WIND       PRES   REMARKS
ALBUQUERQUE    PTSUNNY   50  13  22 W8        29.61S
DOUBLE EAGLE   PTSUNNY   46  12  25 S7        29.63R
MORIARTY ARPT  FAIR      51  13  21 S17G25    29.62S
CLINES CORNERS SUNNY     47  12  24 SW25      29.61R
BELEN          FAIR      54  13  19 S15       29.59S
SOCORRO        FAIR      59  11  15 SE17      29.60F

$$
NMZ524>526-539-540-252300-
SOUTHCENTRAL MOUNTAINS

CITY           SKY/WX    TMP DP  RH WIND       PRES   REMARKS
RUIDOSO        SUNNY     48   5  17 SW33G49   29.68R

$$
NMZ527>531-252300-
NORTHEAST HIGHLANDS/NORTHEAST PLAINS

CITY           SKY/WX    TMP DP  RH WIND       PRES   REMARKS
LAS VEGAS      MOSUNNY   45  18  34 SW22G35   29.60R
RATON          SUNNY     46  20  35 SW23G32   29.56R
CLAYTON        MOSUNNY   55  15  20 S25G32    29.58R

$$
NMZ532>537-252300-
EASTCENTRAL PLAINS

CITY           SKY/WX    TMP DP  RH WIND       PRES   REMARKS
TUCUMCARI      PTSUNNY   58  12  16 S13       29.60F
CANNON AFB     HAZE      46  18  32 S8        29.66F VSB<1/4
CLOVIS AIRPORT CLOUDY    45  21  39 S5        29.67S

$$
NMZ028-029-538-252300-
SOUTHEAST PLAINS

CITY           SKY/WX    TMP DP  RH WIND       PRES   REMARKS
ROSWELL        PTSUNNY   68   9  10 S24G36    29.61R
ARTESIA        PTSUNNY   63  12  14 S18G24    29.68S
CARLSBAD       PTSUNNY   67  13  12 S17       29.67F
HOBBS          SUNNY     55  21  26 S15G24    29.72R


$$



USA.gov is the U.S. government's official web portal to all federal, state and local government web resources and services.